Location: Croagnes
(43.9363°N, 5.3265°E)
Time: 21:28:04
(UTC+00:00)

SL-27 R/B - Pass Details

Date: 06 June 2020
Orbit: 420 x 471 km, 74.7° (Epoch: 07 July)

Event Time Altitude Azimuth Distance (km) Brightness Sun altitude
Rises 21:26:35 0° 330° (NNW) 2,499 8.0 -16.9°
Reaches altitude 10° 21:28:52 10° 319° (NW) 1,611 6.5 -17.1°
Maximum altitude 21:31:58 29° 258° (WSW) 869 4.0 -17.4°
Enters shadow 21:33:28 21° 216° (SW) 1,081 4.1 -17.5°
